GW5567 Weather Reports


time (UTC)temp
C
wind
direction
speed
KPH
gust
KPH
rain 1hr
cm
rain 24hr
cm
rain mn
cm
humidity
%
barometer
mb
20260505124558 15 183 4.8 11.3 0.00 0.25 0.00 69 1008.6
20260505123105 14 184 4.8 9.7 0.00 0.25 0.00 69 1008.5
20260505121557 15 184 3.2 12.9 0.00 0.25 0.00 69 1008.3
20260505120057 15 169 6.4 12.9 0.00 0.25 0.00 69 1008.2
20260505114556 15 188 4.8 9.7 0.00 0.25 0.00 67 1008.1
20260505113111 15 188 3.2 9.7 0.00 0.25 0.00 66 1008.0
20260505111555 15 185 4.8 12.9 0.00 0.25 0.00 65 1007.7
20260505101554 16 176 9.7 17.7 0.00 0.25 0.00 65 1007.1
20260505100055 16 173 8.0 14.5 0.00 0.25 0.00 65 1006.9
20260505094553 17 178 8.0 14.5 0.00 0.25 0.00 63 1006.9
20260505093059 17 175 6.4 14.5 0.00 0.25 0.00 61 1006.8
20260505091614 17 171 8.0 12.9 0.00 0.25 0.00 60 1006.7
20260505090053 17 178 8.0 12.9 0.00 0.25 0.00 60 1006.6
20260505084555 17 176 6.4 14.5 0.00 0.25 0.00 58 1006.5
20260505083100 17 165 8.0 12.9 0.00 0.25 0.00 58 1006.4
20260505081601 17 183 8.0 17.7 0.00 0.25 0.00 60 1006.5
20260505080105 17 173 4.8 16.1 0.00 0.25 0.00 60 1006.5
20260505074551 17 176 6.4 19.3 0.00 0.25 0.00 58 1006.5
20260505073053 17 184 9.7 24.1 0.00 0.25 0.00 58 1006.1
20260505071558 18 173 11.3 27.4 0.00 0.25 0.00 53 1005.8
20260505070055 18 185 12.9 19.3 0.00 0.25 0.00 53 1005.5
20260505064554 18 178 12.9 17.7 0.00 0.25 0.25 54 1005.3
20260505063128 18 178 8.0 16.1 0.00 0.25 0.25 54 1005.3
20260505061633 18 176 11.3 19.3 0.00 0.25 0.25 54 1005.3
20260505060103 19 178 9.7 14.5 0.00 0.25 0.25 54 1005.2
20260505054606 18 177 6.4 11.3 0.00 0.25 0.25 55 1005.3
20260505053055 19 177 8.0 19.3 0.00 0.25 0.25 55 1005.2
20260505051611 19 177 11.3 17.7 0.00 0.25 0.25 54 1005.2
20260505041556 19 178 9.7 16.1 0.00 0.25 0.25 57 1005.1
20260505040107 20 176 8.0 16.1 0.00 0.25 0.25 56 1005.2
20260505034559 20 175 11.3 17.7 0.00 0.25 0.25 55 1004.9
20260505033101 21 184 9.7 17.7 0.00 0.25 0.25 53 1004.8
20260505031602 21 189 8.0 16.1 0.00 0.25 0.25 53 1004.6
20260505030104 23 259 4.8 12.9 0.00 0.25 0.25 46 1004.5
20260505024555 26 306 4.8 8.0 0.00 0.25 0.25 42 1004.5
20260505023057 27 338 0.0 3.2 0.00 0.25 0.25 35 1004.4
20260505021557 27 0 0.0 4.8 0.00 0.25 0.25 35 1004.4
20260505014557 28 0 0.0 3.2 0.00 0.25 0.25 32 1004.7
20260505013107 28 338 1.6 4.8 0.00 0.25 0.25 30 1004.8
20260505011600 28 0 1.6 6.4 0.00 0.25 0.25 31 1004.9
20260505010112 28 347 1.6 4.8 0.00 0.25 0.25 30 1005.0
20260505004555 27 347 1.6 9.7 0.00 0.25 0.25 34 1005.1
20260505003058 27 330 3.2 8.0 0.00 0.25 0.25 32 1005.1
20260505001602 27 329 1.6 8.0 0.00 0.25 0.25 31 1005.2
20260505000100 27 327 3.2 8.0 0.00 0.25 0.25 33 1005.3
20260504234556 27 327 4.8 12.9 0.00 0.25 0.25 31 1005.3
20260504233107 28 300 3.2 8.0 0.00 0.25 0.25 31 1005.4
20260504231600 27 0 1.6 6.4 0.00 0.25 0.25 28 1005.4
20260504230058 27 306 4.8 9.7 0.00 0.25 0.25 32 1005.7
20260504224554 27 296 4.8 8.0 0.00 0.25 0.25 29 1005.7
20260504223058 27 0 0.0 8.0 0.03 0.25 0.25 32 1005.8
20260504221558 26 287 4.8 11.3 0.10 0.25 0.25 34 1006.0
20260504220058 25 285 3.2 11.3 0.15 0.25 0.25 38 1006.2
20260504214603 24 276 4.8 16.1 0.20 0.25 0.25 44 1006.4
20260504213100 24 284 6.4 12.9 0.23 0.23 0.23 45 1006.4
20260504211556 25 273 3.2 12.9 0.15 0.15 0.15 44 1006.6
20260504210109 24 288 4.8 12.9 0.10 0.10 0.10 44 1006.9
20260504204612 25 311 4.8 14.5 0.05 0.05 0.05 46 1007.0
20260504203108 25 317 4.8 14.5 0.00 0.00 0.00 44 1007.0
20260504201557 26 296 4.8 12.9 0.00 0.00 0.00 43 1007.1
20260504200057 26 347 4.8 14.5 0.00 0.00 0.00 44 1007.1
20260504194602 26 234 4.8 11.3 0.00 0.00 0.00 42 1007.1
20260504193059 25 0 1.6 9.7 0.00 0.00 0.00 44 1007.2
20260504191557 25 188 4.8 12.9 0.00 0.00 0.00 42 1007.2
20260504190126 25 218 3.2 8.0 0.00 0.00 0.00 42 1007.4
20260504184555 24 254 3.2 9.7 0.00 0.00 0.00 43 1007.5
20260504183055 23 281 3.2 11.3 0.00 0.00 0.00 49 1007.7
20260504181557 23 244 4.8 8.0 0.00 0.00 0.00 47 1007.9
20260504180055 23 298 3.2 8.0 0.00 0.00 0.00 46 1008.0
20260504174600 22 292 3.2 11.3 0.00 0.00 0.00 47 1007.9
20260504173058 22 286 3.2 12.9 0.00 0.00 0.00 46 1007.7
20260504171556 22 289 4.8 16.1 0.00 0.00 0.00 49 1007.7